Regional Weather Roundup
Issued by NWS

Home | Current Version | Previous Version | Graphics & Text | Print | Product List | Glossary On
Versions: 1 2 3 4 5 6 7 8 9 10 11 12 13 14 15 16 17 18 19 20 21 22 23 24 25 26 27 28 29 30 31 32 33 34 35 36 37 38 39 40 41 42 43 44 45 46 47 48 49 50
000
ASUS43 KLMK 282110
RWRKY
KENTUCKY REGIONAL WEATHER ROUNDUP
NATIONAL WEATHER SERVICE LOUISVILLE KY
500 PM EDT THU JUL 28 2016

NOTE "FAIR" INDICATES FEW OR NO CLOUDS BELOW 12,000 FEET
WITH NO SIGNIFICANT WEATHER AND/OR OBSTRUCTIONS TO VISIBILITY.

KYZ001>023-026-027-061>063-070>075-282200-
WESTERN AND SOUTH CENTRAL KENTUCKY

CITY           SKY/WX    TMP DP  RH WIND       PRES   REMARKS
PADUCAH        MOSUNNY   88  75  65 SW6       29.86F HX  97
HENDERSON      MOSUNNY   88  73  62 W8        29.84F HX  96
OWENSBORO      PTSUNNY   86  76  71 W7        29.87F HX  96
HOPKINSVILLE   NOT AVBL
BOWLING GREEN  MOSUNNY   85  71  63 CALM      29.89F HX  90
GLASGOW        PTSUNNY   81  70  69 CALM      29.90F
$$

KYZ024-025-028>034-038-045-046-053-282200-
NORTH CENTRAL KENTUCKY

CITY           SKY/WX    TMP DP  RH WIND       PRES   REMARKS
LOUISVILLE/SDF PTSUNNY   87  69  54 VRB3      29.85F HX  91
LOUISVILLE/LOU PTSUNNY   86  70  58 VRB7      29.86F HX  90
FORT KNOX      NOT AVBL
$$

KYZ035>037-039>044-047>052-055>060-089>105-282200-
NORTHEAST KENTUCKY

CITY           SKY/WX    TMP DP  RH WIND       PRES   REMARKS
LEXINGTON      CLOUDY    77  71  82 CALM      29.90S
COVINGTON      PTSUNNY   81  71  71 CALM      29.87F
FRANKFORT      CLOUDY    80  71  74 S7        29.87F
$$

KYZ054-064>069-076>088-106>120-282200-
SOUTHEAST KENTUCKY

CITY           SKY/WX    TMP DP  RH WIND       PRES   REMARKS
JACKSON        RAIN      73  70  90 CALM      29.93S FOG
LONDON         LGT RAIN  72  68  87 NE3       29.92F
SOMERSET       LGT RAIN  70  70 100 CALM      29.93F
MIDDLESBORO    CLOUDY    77  73  86 SW8       29.92S
MONTICELLO     LGT RAIN N/A N/A N/A N10       29.93F
$$





USA.gov is the U.S. government's official web portal to all federal, state and local government web resources and services.